When you browse on this site, cookies collect data to enhance your experience and personalize the content and advertising you see.
Visit our Privacy Policy to learn more. By continuing to use the site, you agree to this use of cookies and data.
  • In Romania
  • List of Countries
  • For 7 days
  • Water Temperature
  • Satellite Maps
  • Weather Map
  • Weather Widgets
  • user-avatar
    Login

    Hourly Weather Arne

    Today, 16 February, Saturday

    Time Temperature Precipitation Wind Pressure Humidity
    00:00 +2°C° 0 mm 2 mps 690 mmHg 66%
    01:00 +2°C° 0 mm 2 mps 690 mmHg 66%
    02:00 +2°C° 0 mm 2 mps 690 mmHg 64%
    03:00 +2°C° 0 mm 2 mps 690 mmHg 63%
    04:00 +2°C° 0 mm 2 mps 690 mmHg 62%
    05:00 +2°C° 0 mm 2 mps 690 mmHg 60%
    06:00 +1°C° 0 mm 2 mps 690 mmHg 59%
    07:00 +1°C° 0 mm 2 mps 690 mmHg 58%
    08:00 +3°C° 0 mm 2 mps 691 mmHg 59%
    09:00 +6°C° 0 mm 1 mps 691 mmHg 60%
    10:00 +8°C° 0 mm 1 mps 691 mmHg 61%
    11:00 +9°C° 0 mm 1 mps 691 mmHg 60%
    12:00 +10°C° 0 mm 0 mps 691 mmHg 60%
    13:00 +11°C° 0 mm 0 mps 691 mmHg 59%
    14:00 +11°C° 0 mm 0 mps 691 mmHg 61%
    15:00 +11°C° 0 mm 0 mps 691 mmHg 63%
    16:00 +10°C° 0 mm 0 mps 690 mmHg 66%
    17:00 +8°C° 0 mm 0 mps 690 mmHg 65%
    18:00 +7°C° 0 mm 1 mps 690 mmHg 63%
    19:00 +4°C° 0 mm 2 mps 690 mmHg 62%
    20:00 +4°C° 0 mm 2 mps 690 mmHg 61%
    21:00 +3°C° 0 mm 2 mps 690 mmHg 60%
    22:00 +3°C° 0 mm 2 mps 690 mmHg 59%
    23:00 +2°C° 0 mm 2 mps 689 mmHg 58%

    Tomorrow, 17 February, Sunday

    Time Temperature Precipitation Wind Pressure Humidity
    00:00 +2°C° 0 mm 2 mps 689 mmHg 57%
    01:00 +2°C° 0 mm 2 mps 689 mmHg 56%
    02:00 +2°C° 0 mm 2 mps 689 mmHg 55%
    03:00 +2°C° 0 mm 2 mps 689 mmHg 55%
    04:00 +2°C° 0 mm 2 mps 688 mmHg 55%
    05:00 +1°C° 0 mm 2 mps 688 mmHg 54%
    06:00 +1°C° 0 mm 2 mps 688 mmHg 54%
    07:00 +1°C° 0 mm 2 mps 688 mmHg 53%
    08:00 +3°C° 0 mm 2 mps 688 mmHg 54%
    09:00 +6°C° 0 mm 1 mps 689 mmHg 55%
    10:00 +8°C° 0 mm 1 mps 689 mmHg 56%
    11:00 +9°C° 0 mm 1 mps 689 mmHg 55%
    12:00 +10°C° 0 mm 0 mps 689 mmHg 55%
    13:00 +11°C° 0 mm 0 mps 689 mmHg 55%
    14:00 +11°C° 0 mm 0 mps 688 mmHg 57%
    15:00 +11°C° 0 mm 0 mps 688 mmHg 60%
    16:00 +11°C° 0 mm 0 mps 687 mmHg 62%
    17:00 +9°C° 0 mm 1 mps 687 mmHg 63%
    18:00 +7°C° 0 mm 1 mps 687 mmHg 64%
    19:00 +5°C° 0 mm 1 mps 687 mmHg 64%
    20:00 +3°C° 0 mm 2 mps 687 mmHg 63%
    21:00 +3°C° 0 mm 2 mps 687 mmHg 62%
    22:00 +2°C° 0 mm 2 mps 687 mmHg 61%
    23:00 +2°C° 0 mm 2 mps 687 mmHg 60%

    Day after tomorrow, 18 February, Monday

    Time Temperature Precipitation Wind Pressure Humidity
    00:00 +2°C° 0 mm 2 mps 686 mmHg 60%
    01:00 +1°C° 0 mm 2 mps 686 mmHg 59%
    02:00 +1°C° 0 mm 2 mps 686 mmHg 59%
    03:00 +1°C° 0 mm 2 mps 686 mmHg 59%
    04:00 +1°C° 0 mm 2 mps 686 mmHg 59%
    05:00 +1°C° 0 mm 2 mps 686 mmHg 59%
    06:00 +1°C° 0 mm 2 mps 685 mmHg 59%
    07:00 -1°C° 0 mm 2 mps 685 mmHg 59%
    08:00 +3°C° 0 mm 1 mps 686 mmHg 58%
    09:00 +5°C° 0 mm 1 mps 686 mmHg 57%
    10:00 +7°C° 0 mm 1 mps 686 mmHg 56%
    11:00 +8°C° 0 mm 1 mps 686 mmHg 56%
    12:00 +10°C° 0 mm 1 mps 686 mmHg 55%
    13:00 +11°C° 0 mm 1 mps 686 mmHg 55%
    14:00 +10°C° 0 mm 0 mps 685 mmHg 57%
    15:00 +10°C° 0 mm 0 mps 685 mmHg 59%
    16:00 +9°C° 0 mm 0 mps 685 mmHg 61%
    17:00 +8°C° 0 mm 1 mps 685 mmHg 63%
    18:00 +6°C° 0 mm 1 mps 684 mmHg 66%
    19:00 +4°C° 0 mm 1 mps 684 mmHg 68%
    20:00 +4°C° 0 mm 1 mps 685 mmHg 68%
    21:00 +2°C° 0 mm 2 mps 685 mmHg 67%
    22:00 +2°C° 0 mm 2 mps 685 mmHg 66%
    23:00 +2°C° 0 mm 2 mps 685 mmHg 65%

    19 February, Tuesday

    Time Temperature Precipitation Wind Pressure Humidity
    00:00 +1°C° 0 mm 2 mps 685 mmHg 65%
    01:00 +1°C° 0 mm 2 mps 685 mmHg 64%
    02:00 +1°C° 0 mm 2 mps 685 mmHg 63%
    03:00 +1°C° 0 mm 2 mps 685 mmHg 63%
    04:00 +1°C° 0 mm 2 mps 684 mmHg 62%
    05:00 -1°C° 0 mm 2 mps 685 mmHg 63%
    06:00 -1°C° 0 mm 2 mps 685 mmHg 63%
    07:00 -1°C° 0 mm 2 mps 685 mmHg 63%
    08:00 +3°C° 0 mm 1 mps 685 mmHg 61%
    09:00 +5°C° 0 mm 1 mps 686 mmHg 60%
    10:00 +6°C° 0 mm 1 mps 686 mmHg 58%
    11:00 +7°C° 0 mm 1 mps 686 mmHg 57%
    12:00 +8°C° 0 mm 1 mps 686 mmHg 55%
    13:00 +9°C° 0 mm 1 mps 686 mmHg 54%
    14:00 +9°C° 0 mm 1 mps 686 mmHg 55%
    15:00 +9°C° 0 mm 1 mps 686 mmHg 57%
    16:00 +9°C° 0 mm 1 mps 686 mmHg 59%
    17:00 +7°C° 0 mm 1 mps 686 mmHg 65%
    18:00 +5°C° 0 mm 1 mps 686 mmHg 72%
    19:00 +3°C° 0 mm 1 mps 686 mmHg 78%
    20:00 +3°C° 0 mm 1 mps 686 mmHg 78%
    21:00 +2°C° 0 mm 1 mps 686 mmHg 78%
    22:00 +2°C° 0 mm 1 mps 686 mmHg 77%
    23:00 +2°C° 0 mm 1 mps 686 mmHg 76%

    20 February, Wednesday

    Time Temperature Precipitation Wind Pressure Humidity
    00:00 +2°C° 0 mm 1 mps 686 mmHg 74%
    01:00 +1°C° 0 mm 1 mps 686 mmHg 72%
    02:00 +1°C° 0 mm 1 mps 686 mmHg 70%
    03:00 +1°C° 0 mm 1 mps 686 mmHg 67%
    04:00 +1°C° 0 mm 1 mps 686 mmHg 65%
    05:00 +1°C° 0 mm 1 mps 686 mmHg 63%
    06:00 +1°C° 0 mm 1 mps 686 mmHg 61%
    07:00 +1°C° 0 mm 1 mps 686 mmHg 60%
    08:00 +3°C° 0 mm 1 mps 687 mmHg 56%
    09:00 +5°C° 0 mm 1 mps 687 mmHg 52%
    10:00 +5°C° 0 mm 0 mps 688 mmHg 49%
    11:00 +7°C° 0 mm 0 mps 688 mmHg 47%
    12:00 +9°C° 0 mm 1 mps 688 mmHg 45%
    13:00 +10°C° 0 mm 1 mps 688 mmHg 43%
    14:00 +10°C° 0 mm 1 mps 688 mmHg 45%
    15:00 +9°C° 0 mm 0 mps 688 mmHg 47%
    16:00 +9°C° 0 mm 0 mps 687 mmHg 48%
    17:00 +8°C° 0 mm 1 mps 687 mmHg 52%
    18:00 +6°C° 0 mm 1 mps 687 mmHg 57%
    19:00 +4°C° 0 mm 1 mps 687 mmHg 61%
    20:00 +3°C° 0 mm 1 mps 688 mmHg 60%
    21:00 +3°C° 0 mm 1 mps 688 mmHg 60%
    22:00 +2°C° 0 mm 2 mps 688 mmHg 60%
    23:00 +2°C° 0 mm 2 mps 688 mmHg 58%

    21 February, Thursday

    Time Temperature Precipitation Wind Pressure Humidity
    00:00 +1°C° 0 mm 2 mps 688 mmHg 56%
    01:00 +1°C° 0 mm 2 mps 688 mmHg 55%
    02:00 +2°C° 0 mm 1 mps 688 mmHg 54%
    03:00 +2°C° 0 mm 1 mps 688 mmHg 53%
    04:00 +2°C° 0 mm 1 mps 688 mmHg 51%
    05:00 +2°C° 0 mm 1 mps 688 mmHg 51%
    06:00 +2°C° 0 mm 1 mps 688 mmHg 50%
    07:00 +2°C° 0 mm 1 mps 688 mmHg 50%
    08:00 +3°C° 0 mm 1 mps 689 mmHg 49%
    09:00 +4°C° 0 mm 0 mps 689 mmHg 47%
    10:00 +6°C° 0 mm 0 mps 690 mmHg 46%
    11:00 +7°C° 0 mm 0 mps 690 mmHg 47%
    12:00 +9°C° 0 mm 0 mps 689 mmHg 47%
    13:00 +10°C° 0 mm 0 mps 689 mmHg 47%
    14:00 +9°C° 0 mm 0 mps 689 mmHg 50%
    15:00 +9°C° 0 mm 0 mps 689 mmHg 53%
    16:00 +9°C° 0 mm 0 mps 688 mmHg 56%
    17:00 +8°C° 0 mm 1 mps 688 mmHg 60%
    18:00 +6°C° 0 mm 1 mps 688 mmHg 65%
    19:00 +4°C° 0 mm 1 mps 688 mmHg 69%
    20:00 +4°C° 0 mm 1 mps 688 mmHg 68%
    21:00 +4°C° 0 mm 1 mps 689 mmHg 67%
    22:00 +4°C° 0 mm 1 mps 689 mmHg 67%
    23:00 +3°C° 0 mm 1 mps 689 mmHg 66%
    Show more